SL-8 DEB

Satellite information

Favourite Embed

Satellite Type and Status

DEBRISIN ORBIT

Key statistics

Satellite SL-8 DEB at a glance.

Uptime

12893

Days in orbit

Revolutions

≈ 14.6

Per day

Orbit

LEO

Low Earth Orbit

Inclination

74.0

Latest

Satellite identification and parameters

Extended collection of information and parameters for SL-8 DEB.

Object identification

Identified? True

Debris? True

Object name: SL-8 DEB

International designator: 1990-004D

Object number (NORAD): 20435

Object ID (CCSDS): 20435

Country: COMMONWEALTH OF INDEPENDENT STATES (CIS)

Current information (Y/N): Y

RCS size: SMALL

Orbital parameters

Period: 98.444 minutes

Inclination: 74.0272 deg

SMA: 7062.43 km

Apoapsis: 693.26 km

Periapsis: 675.331 km

RAAN: 8.8306 deg

Eccentricy: 0.0012693

Argument of periapsis: 115.6361 deg

Mean anomaly: 10.4056 deg

Mean motion: 14.62754663 rev/day

Mean motion (dot): 0.00002627 rev/day2

B* drag term: 0.0005205 1/REarth

Two-line elements (TLE)

Creation date: May 7, 2025, 3:14 a.m.

Reference frame: TEME

Reference center: EARTH

Epoch: May 6, 2025, 8:21 p.m. UTC

TLE line 0: 0 SL-8 DEB

TLE line 1: 1 20435U 90004D 25126.84844193 .00002627 00000-0 52050-3 0 9996

TLE line 2: 2 20435 74.0272 8.8306 0012693 115.6361 10.4056 14.62754663862968

Live tracking on map

Real-time ground track for satellite SL-8 DEB.

In-orbit conjunctions

A list of the most updated potential collisions computed for object SL-8 DEB.

Target Orbit TCA Probability of collision Miss distance Type
MAST SSO 2025-02-05 15:28:25 0.0002429329 450.0 (m) PAYLOAD
SAC C SSO 2024-09-25 20:17:21 0.0007465795 597.0 (m) PAYLOAD

Associated space launch

Military communications satellite

SL-8 DEB was lifted into orbit during the mission ‘Kosmos-3M | Strela-2M 47’, on board a Kosmos-3M space rocket.

The launch took place on Jan. 18, 1990, 12:52 p.m. from 133/3 (133L).

For more information about the launch, click the button.

Launch to space Kosmos-3M | Strela-2M 47
Kosmos-3M | Strela-2M 47

Agency: N/A

Status: Launch Successful

Launch date: Jan. 18, 1990, 12:52 p.m. UTC

Rocket: Kosmos-3M

Launch pad: 133/3 (133L)

Location: Plesetsk Cosmodrome, Russian Federation

...

Latest news about this satellite

There are no fresh news available about this satellite. Check back as we update our databases every day.


Newsletter sign-up

Weekly statistics, charts and insights to help you stay on top of the space industry.